Regional Weather Roundup
Issued by NWS

Home | Current Version | Previous Version | Text Only | Print | Product List | Glossary Off
Versions: 1 2 3 4 5 6 7 8 9 10 11 12 13 14 15 16 17 18 19 20 21 22 23 24 25 26 27 28 29 30 31 32 33 34 35 36 37 38 39 40 41 42 43 44 45 46 47 48 49 50

000
ASUS43 KDMX 152201
RWRIA

WEATHER ROUNDUP FOR IOWA
NATIONAL WEATHER SERVICE DES MOINES IA
400 PM CST FRI DEC 15 2017

NOTE: "FAIR" INDICATES FEW OR NO CLOUDS BELOW 12,000 FEET WITH NO
SIGNIFICANT WEATHER AND/OR OBSTRUCTIONS TO VISIBILITY.

* - THESE STATIONS ARE NOT NWS STATIONS...THUS NOT UNDER NWS
QUALITY CONTROL.  THEY ALSO DO NOT REPORT WEATHER SUCH
AS PRECIPITATION OR FOG.

IAZ001>003-012>014-020>022-031>034-043>046-152300-
   NORTHWEST IOWA

CITY           SKY/WX    TMP DP  RH WIND       PRES   REMARKS
CARROLL *      CLOUDY    45  25  45 SW21      29.81F
CHEROKEE *     CLOUDY    44  22  42 SW13G18   29.77F
DENISON *      CLEAR     43  25  49 SW10G18   29.81F
LE MARS *      PTCLDY    43  25  49 SW6       29.77S
ORANGE CITY *  PTCLDY    43  27  52 SW13      29.76R
SHELDON *      CLOUDY    41  25  52 SW9G16    29.74R
SIOUX CITY     CLOUDY    46  24  42 SW12      29.78F
SPENCER        CLOUDY    42  24  49 SW13      29.76F
STORM LAKE *   MOCLDY    43  23  45 SW18      29.77F
$$

IAZ055>058-069>071-079>083-090>094-152300-
   SOUTHWEST IOWA

CITY           SKY/WX    TMP DP  RH WIND       PRES   REMARKS
ATLANTIC *     CLOUDY    46  27  46 SW16G25   29.85F
AUDUBON *      CLOUDY    45  25  45 SW13      29.83F
CLARINDA *     CLOUDY    46  25  42 SW18G25     N/A
COUNCIL BLFS * CLEAR     46  25  42 SW20G28   29.84F
CRESTON *      CLOUDY    43  23  45 SW17G24   29.88F
HARLAN  *      PTCLDY    45  25  45 SW17      29.85F
LAMONI         CLEAR     43  20  39 SW16      29.91F
RED OAK *      CLEAR     46  27  46 SW23      29.87F
SHENANDOAH *   CLEAR     48  25  40 SW17G25   29.90S
$$

IAZ047>049-059>061-072>074-084-152300-
   CENTRAL IOWA

CITY           SKY/WX    TMP DP  RH WIND       PRES   REMARKS
AMES           PTCLDY    44  24  45 SW18      29.83F
ANKENY *       CLEAR     45  23  42 SW13G21   29.87S
BOONE *        CLEAR     43  23  45 SW18G24   29.82F
CHARITON *     CLEAR     43  19  39 SW16G25   29.89F
DES MOINES     CLOUDY    45  21  38 SW22      29.86F
GRINNELL*      CLEAR     42  21  43 SW14G22   29.87F
KNOXVILLE *    CLEAR     43  18  36 SW16      29.88S
MARSHALLTOWN   PTCLDY    42  24  49 SW14      29.83F
NEWTON *       CLEAR     43  21  42 SW15G23   29.86F
PELLA *        CLEAR     43  20  40 W10G16    29.90S
PERRY *          N/A     44  20  39 SW17G24   29.84F
$$

IAZ004>006-015-016-023>025-035-036-152300-
   NORTH CENTRAL IOWA

CITY           SKY/WX    TMP DP  RH WIND       PRES   REMARKS
ALGONA *       PTCLDY    41  25  52 SW10      29.77F
CLARION *      CLOUDY    41  23  48 SW12      29.79F
ESTHERVILLE    CLOUDY    40  25  55 SW13      29.75F WCI  32
FORT DODGE *   PTCLDY    42  24  49 SW10      29.80F
MASON CITY     CLOUDY    39  24  55 SW12      29.78F WCI  32
FOREST CITY *    N/A     41  27  56 W6        29.77F
WEBSTER CITY * CLEAR     43  23  45 SW15      29.79S
IOWA FALLS *     N/A     43  24  47 SW16      29.82F
$$

IAZ007>011-017>019-026>030-037>042-050>054-066-152300-
   NORTHEAST IOWA

CITY           SKY/WX    TMP DP  RH WIND       PRES   REMARKS
CEDAR RAPIDS   MOCLDY    42  24  49 W14G25    29.85F
CHARLES CITY * CLOUDY    39  27  60 W12       29.80S WCI  32
CLINTON *      CLOUDY    36  25  64 SW14      29.89F WCI  27
DECORAH *      CLOUDY    34  28  80 VRB3      29.80S
DUBUQUE        CLOUDY    33  26  75 SW10      29.84F WCI  25
MONTICELLO *   CLOUDY    39  27  60 SW9       29.85F WCI  33
OELWEIN *      CLOUDY    39  28  65 W14       29.82S WCI  31
WATERLOO       CLEAR     39  24  55 W8        29.82F WCI  33
$$

IAZ064-065-067-068-078-152300-
   EAST CENTRAL IOWA

CITY           SKY/WX    TMP DP  RH WIND       PRES   REMARKS
DAVENPORT      CLOUDY    37  23  56 SW12      29.92F WCI  29
IOWA CITY      PTCLDY    43  23  45 W14       29.90F
MT. PLEASANT * CLEAR     41  20  43 W18       29.93S
MUSCATINE *    PTCLDY    41  23  48 SW8       29.91F
QUAD CITIES    CLOUDY    39  23  52 SW14      29.91S WCI  31
$$

IAZ062-063-075>077-085>089-095>099-152300-
   SOUTHEAST IOWA

CITY           SKY/WX    TMP DP  RH WIND       PRES   REMARKS
BURLINGTON     CLEAR     42  21  43 W10G21    29.93F
FAIRFIELD *    CLEAR     43  19  39 SW16      29.91S
FORT MADISON * CLEAR     43  21  42 SW7       29.95F
KEOKUK *       CLEAR     43  19  39 SW14      29.95F
OSKALOOSA *      N/A     42  20  42 W17G24    29.90S
OTTUMWA        CLEAR     43  20  39 MISG      29.90F
WASHINGTON *   CLEAR     41  23  48 SW16      29.91F
$$

ABBREVIATIONS USED IN REMARKS
   TC - TEMPERATURES IN CELSIUS
  WCI - WIND CHILL INDEX
   HX - HEAT INDEX
  VSB - VISIBILITY
$$





USA.gov is the U.S. government's official web portal to all federal, state and local government web resources and services.